Regional Weather Roundup
Issued by NWS New Orleans/Baton Rouge, LA

Home | Current Version | Previous Version | Text Only | Print | Product List | Glossary Off
Versions: 1 2 3 4 5 6 7 8 9 10 11 12 13 14 15 16 17 18 19 20 21 22 23 24 25 26 27 28 29 30 31 32 33 34 35 36 37 38 39 40 41 42 43 44 45 46 47 48 49 50

847
ASUS44 KLIX 310610
RWRLIX
NEW ORLEANS REGIONAL WEATHER ROUNDUP
NATIONAL WEATHER SERVICE NEW ORLEANS LA
1200 AM CST SAT JAN 31 2015

NOTE: "FAIR" INDICATES FEW OR NO CLOUDS BELOW 12,000 FEET WITH NO
      SIGNIFICANT WEATHER AND/OR OBSTRUCTIONS TO VISIBILITY.
      SKY/WX - SKY CONDITION AND SIGNIFICANT WEATHER.
      TMP - AIR TEMPERATURE.     DP    - DEWPOINT TEMPERATURE.
      RH  - RELATIVE HUMIDITY.   PRES  - PRESSURE.
      HI  - HEAT INDEX.          WCI   - WIND CHILL INDEX.

*  THESE STATIONS ARE NOT NWS OR FAA STATIONS AND ARE NOT UNDER
   NWS QUALITY CONTROL.

LAZ038-040-048-061>063-065>067-069-310700-
SOUTHEAST LOUISIANA

CITY           SKY/WX    TMP DP  RH WIND       PRES   REMARKS
N.O. AUDUBON     N/A     52  35  52 MISG        N/A
6HR MIN TEMP:  49; 6HR MAX TEMP:  55;

N.O. INTL ARPT PTCLDY    52  36  54 NE9       30.33F
6HR MIN TEMP:  48; 6HR MAX TEMP:  54;

N.O. LAKEFRONT PTCLDY    54  36  50 NE16      30.33F
6HR MIN TEMP:  54; 6HR MAX TEMP:  56;

N.O. DOWNTOWN* NOT AVBL
SLIDELL        CLEAR     37  33  85 N3        30.34F
6HR MIN TEMP:  36; 6HR MAX TEMP:  52;

BATON ROUGE    CLEAR     42  32  67 NE5       30.34F
6HR MIN TEMP:  38; 6HR MAX TEMP:  54;

BOOTHVILLE     PTCLDY    53  42  66 NE8       30.32F
6HR MIN TEMP:  49; 6HR MAX TEMP:  54;

BELLE CHASSE   PTCLDY    44  35  70 NE6       30.32F
6HR MIN TEMP:  39; 6HR MAX TEMP:  55;

BOGALUSA*        N/A     37  33  85 N5        30.37F WCI  33
6HR MIN TEMP:  37; 6HR MAX TEMP:  50;

GALLIANO*      PTCLDY    53  40  62 NE3       30.32F
6HR MIN TEMP:  48; 6HR MAX TEMP:  53;

NEW ROADS*       N/A     41  32  70 N6        30.35F
6HR MIN TEMP:  41; 6HR MAX TEMP:  53;

GONZALES*        N/A     46  33  60 CALM      30.33F
6HR MIN TEMP:  42; 6HR MAX TEMP:  55;

HAMMOND*       CLEAR     39  32  75 N3        30.35F
HOUMA*         PTCLDY    45  37  72 NE3       30.32F
6HR MIN TEMP:  45; 6HR MAX TEMP:  52;

PORT FOURCHON* CLEAR     55  43  62 NE12      30.34F

$$

MSZ070-080>082-310700-
SOUTHERN MISSISSIPPI

CITY           SKY/WX    TMP DP  RH WIND       PRES   REMARKS
MCCOMB         CLEAR     43  30  60 NE5       30.34F
6HR MIN TEMP:  43; 6HR MAX TEMP:  53;

GULFPORT       CLEAR     44  31  60 N5        30.34F
6HR MIN TEMP:  44; 6HR MAX TEMP:  54;

BILOXI         CLEAR     44  33  67 NE6       30.34F
6HR MIN TEMP:  43; 6HR MAX TEMP:  53;

PASCAGOULA     PTCLDY    39  32  76 N6        30.34F WCI  35
6HR MIN TEMP:  38; 6HR MAX TEMP:  52;


$$

COASTAL OBSERVATIONS
LAKE AND NEARSHORE STATIONS

STATION/POSITION TIME  TEMP    WIND        PRES    WAVE
                       AIR SEA DIR/SP/G            HT/PER
                 (UTC) (F)     (DEG/KT/KT) (MB)    (FT/S)
PASCAGOULA       0600   47      20/  7/ 11 1026.7
WAVELAND YACHT   0600   48      50/  9/ 11 1026.6
GRAND ISLE       0600   55 63   60/ 10/ 16 1026.9
SOUTHWEST PASS   0600   51 46   20/  9/ 10 1026.4
NEW CANAL        0600   54 55   60/ 16/ 18 1027.1
SHELL BEACH      0600   54 57   50/ 14/ 19 1026.6

OFFSHORE STATIONS

STATION/POSITION TIME  TEMP    WIND        PRES    WAVE
                       AIR SEA DIR/SP/G            HT/PER
                 (UTC) (F)     (DEG/KT/KT) (MB)    (FT/S)
64 S DAUPHIN ISL 0519   59 68   50/ 17/ 21 1026.3    4/ 5

$$




USA.gov is the U.S. government's official web portal to all federal, state and local government web resources and services.